[[{"header":{"parameterUnit":"m.s-1","parameterCategory":1,"la1":30.2991,"la2":30.254,"lo1":-89.0895,"lo2":-89.0444,"dy":0.0017,"dx":0.0017,"nx":28,"ny":28,"refTime":"2024-08-30T21:00:00:Z","depth":0,"parameterNumber":2,"parameterNumberName":"U-component_of_WINDS"},"data":[0,0,0,0,0,0,0,0,0,0,0,0,0,0,0,0,0,0,0,0,0,0,0,0,0,0,0,0,0,0,0,0,0,0,0,0,0,0,0,0,0,0,0,0,0,0,0,0,0,0,0,0,0,0,0,0,0,0,-4.3853,-4.3853,0,-4.3844,-4.3844,-4.3844,-4.3699,-4.3695,-4.3691,-4.3688,-4.3682,-4.3685,-4.3688,0,0,0,0,0,0,0,0,0,0,0,0,0,-4.3745,-4.3748,-4.3853,-4.3853,-4.3853,-4.3844,-4.3844,-4.3844,-4.37,-4.3695,-4.3691,-4.3686,-4.3681,-4.3685,-4.3689,0,0,0,0,0,0,0,0,0,0,0,0,0,-4.377,-4.3749,-4.3853,-4.3779,-4.3773,-4.3844,-4.3844,-4.3844,-4.3701,-4.3695,-4.3689,-4.3684,-4.3679,-4.3684,-4.3689,-4.3831,0,0,-4.3704,-4.3706,0,0,0,0,0,0,0,0,-4.3769,-4.3774,-4.379,-4.3785,-4.3777,-4.3767,-4.3804,-4.384,-4.3702,-4.3728,-4.3688,-4.3681,-4.3715,-4.3716,-4.3727,-4.3831,-4.3831,-4.3705,-4.3708,-4.371,-4.3711,0,0,0,0,0,0,0,-4.3767,-4.3774,-4.385,-4.3791,-4.3783,-4.3747,-4.3745,-4.381,-4.3753,-4.3725,-4.3715,-4.3716,-4.371,-4.3723,-4.3726,-4.383,-4.3704,-4.3709,-4.3712,-4.3714,-4.4047,-4.4052,0,0,0,0,0,0,-4.3775,-4.3773,-4.385,-4.3849,-4.3759,-4.3754,-4.3751,-4.3776,-4.3752,-4.3743,-4.372,-4.3709,-4.3717,-4.372,-4.3725,-4.3886,-4.371,-4.3714,-4.3717,-4.4041,-4.4048,-4.4054,0,0,0,0,0,0,-4.3774,-4.3784,-4.385,-4.3808,-4.3814,-4.3762,-4.3791,-4.3779,-4.3791,-4.3748,-4.3737,-4.3744,-4.3713,-4.3718,-4.3805,-4.3884,-4.3717,-4.3721,-4.4034,-4.4043,-4.4051,-4.4213,0,0,0,0,0,0,-4.3771,-4.3784,-4.3837,-4.3811,-4.3817,-4.393,-4.3796,-4.3783,-4.38,-4.3785,-4.3767,-4.3759,-4.3709,-4.3798,-4.381,-4.3888,-4.3725,-4.4026,-4.4038,-4.4048,-4.42,-4.4226,-4.4248,0,0,0,0,0,-4.3768,-4.3884,-4.3841,-4.3851,-4.3882,-4.3935,-4.3939,-4.3878,-4.3807,-4.3859,-4.3832,-4.3759,-4.3875,-4.3808,-4.382,-4.3901,-4.4021,-4.4035,-4.4048,-4.4189,-4.4221,-4.4247,0,0,0,0,0,0,-4.3923,-4.3879,-4.383,-4.3942,-4.3943,-4.391,-4.3975,-4.3914,-4.3936,-4.3921,-4.3846,-4.3844,-4.3941,-4.393,-4.3857,-4.4036,-4.3935,-4.3951,-4.4039,-4.4068,-4.4092,-4.4091,-4.3729,0,0,0,0,0,-4.397,-4.4016,-4.3976,-4.4078,-4.4081,-4.4029,-4.4049,-4.4002,-4.4001,-4.4001,-4.3979,-4.3981,-4.4017,-4.4043,-4.4074,-4.4199,-4.4191,-4.426,-4.4284,-4.4304,-4.4318,-4.438,-4.4409,-4.4098,-4.4098,-4.4097,0,0,-4.4068,-4.405,-4.4083,-4.4108,-4.4104,-4.4152,-4.403,-4.4088,-4.4122,-4.401,-4.4088,-4.4074,-4.4071,-4.4176,-4.4222,-4.417,-4.4403,-4.4321,-4.4338,-4.434,-4.4396,-4.4426,-4.4452,-4.4107,-4.4105,-4.4104,0,0,-4.4269,-4.4262,-4.4344,-4.4341,-4.4335,-4.43,-4.432,-4.4296,-4.4281,-4.4359,-4.4275,-4.4316,-4.4381,-4.4381,-4.439,-4.4592,-4.4525,-4.4604,-4.4729,-4.479,-4.4814,-4.4836,-4.4904,-4.493,-4.4619,-4.462,-4.462,0,-4.4391,-4.446,-4.4394,-4.4456,-4.4468,-4.4368,-4.445,-4.4452,-4.4457,-4.4468,-4.4411,-4.4488,-4.4479,-4.4581,-4.463,-4.4642,-4.4661,-4.4604,-4.4816,-4.4837,-4.4856,-4.492,-4.4946,-4.4629,-4.4628,-4.4627,-4.4626,0,-4.4609,-4.4659,-4.4726,-4.4731,-4.4752,-4.4824,-4.4768,-4.4797,-4.475,-4.472,-4.48,-4.4786,-4.4811,-4.4833,-4.4788,-4.4928,-4.4896,-4.4829,-4.4725,-4.4896,-4.4954,-4.4979,-4.4642,-4.4639,-4.4636,-4.4634,0,0,-4.4906,-4.4873,-4.4899,-4.4898,-4.4884,-4.4921,-4.4989,-4.5012,-4.5037,-4.5045,-4.5098,-4.5155,-4.5091,-4.5102,-4.5056,-4.511,-4.5266,-4.5035,-4.5034,-4.5075,-4.5416,-4.5464,-4.5493,-4.5223,-4.5228,-4.5231,-4.5415,0,-4.5098,-4.5208,-4.515,-4.5269,-4.5312,-4.5218,-4.5276,-4.5274,-4.5248,-4.5282,-4.5254,-4.5294,-4.521,-4.5214,-4.5264,-4.5236,-4.5333,-4.5223,-4.527,-4.5272,-4.5269,-4.5524,-4.5575,-4.5749,-4.5438,-4.5442,-4.5445,0,-4.5335,-4.5349,-4.5472,-4.5447,-4.5463,-4.5516,-4.5531,-4.5565,-4.5561,-4.5538,-4.5549,-4.549,-4.5554,-4.5455,-4.554,-4.5467,-4.5483,-4.5473,-4.5478,-4.5477,-4.5366,-4.5526,-4.5804,-4.5828,-4.5481,-4.5478,-4.5476,0,-4.5534,-4.5585,-4.5664,-4.5667,-4.5642,-4.568,-4.5672,-4.5662,-4.5679,-4.5693,-4.5703,-4.5726,-4.5738,-4.5757,-4.5705,-4.5638,-4.5797,-4.5694,-4.5778,-4.5779,-4.5812,-4.581,-4.6092,-4.5831,-4.583,-4.583,-4.5829,0,-4.575,-4.5828,-4.5752,-4.58,-4.5884,-4.5817,-4.5902,-4.5884,-4.5875,-4.5918,-4.584,-4.5882,-4.5813,-4.5848,-4.5809,-4.5884,-4.5891,-4.5873,-4.5861,-4.5878,-4.5879,-4.5884,-4.5869,-4.5837,-4.5835,-4.5834,-4.5833,0,-4.5985,-4.5938,-4.6016,-4.5985,-4.5979,-4.6042,-4.6015,-4.6058,-4.6028,-4.6082,-4.6092,-4.6044,-4.6081,-4.6032,-4.6065,-4.6039,-4.614,-4.6112,-4.6141,-4.6131,-4.6216,-4.6207,-4.6507,-4.6542,-4.6263,-4.6266,-4.6268,0,-4.6124,-4.6181,-4.6155,-4.6177,-4.6172,-4.621,-4.6226,-4.6163,-4.6183,-4.6182,-4.6225,-4.6255,-4.6275,-4.6339,-4.6307,-4.6332,-4.6301,-4.6405,-4.6304,-4.6318,-4.6297,-4.6293,-4.6296,-4.6424,-4.6428,-4.643,-4.6433,0,-4.6374,-4.6348,-4.6373,-4.6391,-4.6412,-4.6423,-4.6429,-4.6452,-4.6386,-4.6413,-4.6448,-4.6464,-4.6497,-4.6527,-4.6543,-4.6534,-4.6472,-4.6465,-4.6485,-4.65,-4.6512,-4.6502,-4.6192,-4.6457,-4.6455,-4.6453,-4.6452,-4.6451,-4.6562,-4.6607,-4.6594,-4.6625,-4.6622,-4.6629,-4.6667,-4.664,-4.6669,-4.6689,-4.6651,-4.6696,-4.6689,-4.6704,-4.6702,-4.6737,-4.6691,-4.6722,-4.6728,-4.6735,-4.6746,-4.6511,-4.674,-4.6739,-4.6739,-4.6738,-4.6737,0,-4.6804,-4.6791,-4.6821,-4.6829,-4.6853,-4.6793,-4.6796,-4.682,-4.686,-4.6858,-4.6879,-4.692,-4.6949,-4.692,-4.6943,-4.6976,-4.6948,-4.6983,-4.6978,-4.6976,-4.6788,-4.6766,-4.7006,-4.7005,-4.7005,-4.7005,-4.7005,-4.7005,-4.6932,-4.7003,-4.6975,-4.7044,-4.7031,-4.7073,-4.7079,-4.7085,-4.7083,-4.7131,-4.7154,-4.7134,-4.7121,-4.7143,-4.7166,-4.7157,-4.7167,-4.7213,-4.7193,-4.7017,-4.699,-4.6965,-4.6944,-4.7217,-4.7217,-4.7378,-4.738,-4.7381]},{"header":{"parameterUnit":"m.s-1","parameterCategory":1,"la1":30.2991,"la2":30.254,"lo1":-89.0895,"lo2":-89.0444,"dy":0.0017,"dx":0.0017,"nx":28,"ny":28,"refTime":"2024-08-30T21:00:00:Z","depth":0,"parameterNumber":3,"parameterNumberName":"V-component_of_WINDS"},"data":[0,0,0,0,0,0,0,0,0,0,0,0,0,0,0,0,0,0,0,0,0,0,0,0,0,0,0,0,0,0,0,0,0,0,0,0,0,0,0,0,0,0,0,0,0,0,0,0,0,0,0,0,0,0,0,0,0,0,0.0459,0.0458,0,0.0423,0.0423,0.0423,0.0365,0.0364,0.0363,0.0362,0.0328,0.0328,0.0328,0,0,0,0,0,0,0,0,0,0,0,0,0,0.0478,0.0478,0.0459,0.0458,0.0458,0.0424,0.0423,0.0423,0.0365,0.0364,0.0363,0.0361,0.0328,0.0328,0.0328,0,0,0,0,0,0,0,0,0,0,0,0,0,0.0459,0.0478,0.0459,0.0425,0.0422,0.0424,0.0423,0.0422,0.0365,0.0364,0.0362,0.0361,0.0328,0.0328,0.0328,0.0361,0,0,0.0328,0.0328,0,0,0,0,0,0,0,0,0.046,0.0459,0.043,0.0427,0.0423,0.0397,0.0417,0.0402,0.0366,0.0387,0.0362,0.036,0.0352,0.035,0.0347,0.0359,0.0357,0.0328,0.0328,0.0328,0.0328,0,0,0,0,0,0,0,0.0462,0.046,0.0445,0.043,0.0426,0.0412,0.0408,0.0414,0.0379,0.0385,0.0381,0.0377,0.035,0.0347,0.0346,0.0357,0.0328,0.0328,0.0328,0.0328,0.0395,0.0396,0,0,0,0,0,0,0.0468,0.0461,0.0446,0.0444,0.0438,0.0413,0.0408,0.0407,0.0379,0.0373,0.0378,0.0375,0.0348,0.0346,0.0344,0.0381,0.0328,0.0328,0.0328,0.0393,0.0395,0.0397,0,0,0,0,0,0,0.0468,0.0467,0.0447,0.0451,0.0448,0.0415,0.0414,0.0407,0.0404,0.0374,0.0367,0.0382,0.0346,0.0344,0.0357,0.0379,0.0328,0.0329,0.0391,0.0394,0.0396,0.0454,0,0,0,0,0,0,0.0469,0.0467,0.0479,0.0452,0.0448,0.046,0.0415,0.0408,0.0404,0.0399,0.0375,0.037,0.0345,0.0357,0.0357,0.0378,0.0329,0.0389,0.0392,0.0395,0.045,0.0459,0.0466,0,0,0,0,0,0.047,0.0497,0.048,0.0478,0.0461,0.0461,0.0459,0.0429,0.0406,0.0418,0.0399,0.0371,0.0377,0.0359,0.0358,0.038,0.0387,0.0391,0.0395,0.0447,0.0457,0.0466,0,0,0,0,0,0,0.0528,0.0493,0.0473,0.0492,0.048,0.0451,0.0465,0.0441,0.0435,0.043,0.0394,0.0389,0.0407,0.0395,0.0375,0.0411,0.0378,0.0382,0.0417,0.0427,0.0434,0.0437,0.0329,0,0,0,0,0,0.0543,0.0545,0.0514,0.0534,0.0529,0.0498,0.0497,0.0475,0.0462,0.0456,0.0438,0.0426,0.0425,0.0425,0.0423,0.0449,0.0443,0.0463,0.0471,0.0478,0.0481,0.0494,0.0503,0.0409,0.0409,0.0409,0,0,0.0573,0.0555,0.0558,0.0545,0.0533,0.0537,0.0494,0.05,0.0503,0.0457,0.0468,0.0454,0.0439,0.0458,0.0466,0.0449,0.0506,0.0482,0.0488,0.0488,0.0499,0.0508,0.0516,0.0412,0.0412,0.0411,0,0,0.0631,0.0617,0.0632,0.0621,0.0603,0.0583,0.0587,0.0562,0.0551,0.0561,0.0527,0.0531,0.053,0.0521,0.0516,0.0572,0.0546,0.0572,0.0612,0.0625,0.0632,0.0639,0.0659,0.0666,0.0576,0.0576,0.0576,0,0.0671,0.0675,0.0643,0.0651,0.0646,0.0605,0.0621,0.0612,0.0595,0.0593,0.0574,0.0573,0.056,0.0577,0.059,0.0588,0.0591,0.0574,0.0634,0.064,0.0645,0.0664,0.0672,0.0579,0.0579,0.0579,0.0578,0,0.0726,0.0729,0.0743,0.0727,0.0725,0.0737,0.0707,0.0708,0.0687,0.0669,0.0681,0.0664,0.0657,0.066,0.064,0.0674,0.0664,0.064,0.0607,0.0658,0.0675,0.0682,0.0584,0.0583,0.0582,0.0581,0,0,0.0817,0.0784,0.079,0.0783,0.0761,0.0763,0.0774,0.0767,0.0769,0.0759,0.0767,0.0768,0.0746,0.0741,0.0719,0.0731,0.0777,0.0706,0.0705,0.0719,0.0814,0.0832,0.0841,0.076,0.0761,0.0762,0.0816,0,0.087,0.0885,0.0857,0.0879,0.0882,0.0844,0.0853,0.0841,0.0825,0.0826,0.0809,0.081,0.0781,0.0777,0.0787,0.0769,0.0795,0.0765,0.0767,0.0768,0.0772,0.0849,0.0868,0.0919,0.0822,0.0823,0.0824,0,0.0933,0.0926,0.0949,0.0926,0.0926,0.0935,0.0927,0.0928,0.0915,0.0902,0.0897,0.0872,0.0881,0.085,0.0863,0.0843,0.0842,0.0834,0.0835,0.0834,0.0798,0.085,0.0935,0.0942,0.0834,0.0833,0.0832,0,0.0998,0.0994,0.1007,0.1002,0.0976,0.0983,0.0973,0.0958,0.0956,0.095,0.0948,0.0943,0.0941,0.0938,0.0912,0.0892,0.0929,0.0895,0.0919,0.092,0.0928,0.0927,0.1013,0.0929,0.0929,0.0929,0.0928,0,0.1059,0.1074,0.1035,0.1043,0.1059,0.1028,0.1045,0.1031,0.1018,0.1023,0.0991,0.0996,0.0962,0.0965,0.0945,0.0959,0.0958,0.0949,0.0943,0.0951,0.0952,0.095,0.0946,0.0931,0.093,0.093,0.0929,0,0.1133,0.1108,0.1119,0.1094,0.1088,0.1101,0.108,0.1087,0.107,0.1076,0.1076,0.1049,0.105,0.1025,0.1021,0.1008,0.103,0.1019,0.1035,0.1031,0.1056,0.1054,0.1143,0.1153,0.1063,0.1064,0.1064,0,0.1174,0.1184,0.1161,0.1161,0.1153,0.1155,0.1153,0.1123,0.1122,0.1108,0.1117,0.1115,0.1112,0.1116,0.1096,0.1093,0.1081,0.1113,0.1081,0.1089,0.1081,0.1081,0.1082,0.1119,0.112,0.1121,0.1122,0,0.1248,0.1235,0.1233,0.1227,0.1226,0.122,0.1212,0.1215,0.1182,0.1183,0.1184,0.1182,0.1178,0.1177,0.1171,0.1161,0.1136,0.1132,0.1138,0.1146,0.1154,0.115,0.1052,0.113,0.1129,0.1129,0.1128,0.1128,0.1306,0.1314,0.1299,0.1298,0.1289,0.1282,0.1288,0.1271,0.1271,0.1265,0.1247,0.1251,0.1238,0.1227,0.122,0.1223,0.1208,0.1215,0.1217,0.122,0.1224,0.1155,0.1222,0.1222,0.1221,0.1221,0.1221,0,0.1379,0.1367,0.1367,0.1357,0.1356,0.1333,0.1324,0.1325,0.1329,0.1319,0.1316,0.1318,0.1317,0.1298,0.1295,0.1301,0.129,0.1301,0.13,0.1298,0.1238,0.1234,0.131,0.131,0.131,0.131,0.131,0.131,0.1416,0.1428,0.1414,0.1422,0.141,0.1413,0.141,0.1404,0.1396,0.1399,0.1398,0.1385,0.1372,0.1368,0.1366,0.1361,0.1361,0.1376,0.1367,0.1311,0.1302,0.1294,0.129,0.1377,0.1377,0.1427,0.1427,0.1427]}]]